Location: Mercogliano
(40.9167°N, 14.7333°E)
Time: 07:35:21
(UTC+00:00)

Cosmos 2150 Rocket - Pass Details

Date: 24 January 2021
Orbit: 748 x 808 km, 74.0° (Epoch: 04 March)

Event Time Altitude Azimuth Distance (km) Brightness Sun altitude
Exits shadow 04:31:46 - 347° (NNW) 2,960 6.8 -20.1°
Reaches altitude 10° 04:33:25 10° 352° (N) 2,350 6.3 -19.8°
Maximum altitude 04:38:35 48° 66° (ENE) 1,035 5.0 -18.8°
Drops below altitude 10° 04:43:47 10° 140° (SE) 2,369 7.2 -17.8°
Sets 04:46:16 0° 146° (SSE) 3,302 8.0 -17.4°
